Home   Weather   Kuwait City   Past weeks

Flag for Kuwait Past Weather in Kuwait City, Kuwait — Yesterday and Last 2 Weeks

Now
54 °F

Clear.


Feels Like: 52 °F
Forecast: 53 / 67 °F
Wind: 7 mph from Northwest

Location: Kuwait International Airport

Current Time: Jan 18, 2017 at 9:23:12 am

Latest Report: Jan 18, 2017 at 9:00 am


Visibility: 4 mi

Pressure: 30.21 "Hg

Humidity: 67%

Dew Point: 43 °F

Location of Kuwait CityLocation

Past Weather in Kuwait City — Graph

°F

Kuwait City Temperature Yesterday

Maximum temperature yesterday: 64 °F (at 2:00 pm)
Minimum temperature yesterday: 48 °F (at 11:00 pm)
Average temperature yesterday: 56 °F

High & Low Weather Summary for the Past Weeks

 TemperatureHumidityPressure
High72 °F (Jan 8, 1:00 pm)100% (Jan 9, 4:00 am)30.30 "Hg (Jan 9, 4:00 am)
Low41 °F (Jan 14, 7:00 am)20% (Jan 12, 3:00 pm)29.89 "Hg (Jan 9, 2:00 pm)
Average57 °F51%30.10 "Hg
* Reported Jan 3 8:00 am — Jan 18 8:00 am, Kuwait City, Weather by CustomWeather, © 2017

Note: Actual official high and low records may vary slightly from our data, if they occured in-between our weather recording intervals... More about our weather records

Advertising

Kuwait City Weather History for the Previous 24 Hours

Scroll right to see more
 ConditionsComfort  
Time TempWeatherWind HumidityBarometerVisibility
8:00 am
Wed, Jan 18
46 °FClear.5 mph76%30.21 "Hg4 mi
7:00 am43 °FClear.No wind81%30.18 "Hg4 mi
6:00 am46 °FClear.5 mph76%30.18 "Hg10 mi
5:00 am45 °FClear.No wind76%30.15 "Hg10 mi
4:00 am48 °FClear.6 mph66%30.15 "Hg10 mi
3:00 am46 °FClear.3 mph66%30.15 "Hg10 mi
2:00 am48 °FClear.7 mph66%30.15 "Hg10 mi
1:00 am48 °FClear.5 mph66%30.15 "Hg10 mi
12:00 am46 °FClear.6 mph66%30.15 "Hg10 mi
11:00 pm
Tue, Jan 17
48 °FClear.5 mph62%30.15 "Hg10 mi
10:00 pm50 °FClear.7 mph62%30.15 "Hg10 mi
9:00 pm52 °FClear.No wind54%30.15 "Hg10 mi
8:00 pm54 °FClear.5 mph54%30.15 "Hg10 mi
7:00 pm59 °FClear.8 mph48%30.15 "Hg10 mi
6:00 pm61 °FClear.9 mph42%30.15 "Hg10 mi
5:00 pm63 °FSunny.10 mph39%30.12 "Hg10 mi
4:00 pm64 °FSunny.13 mph37%30.12 "Hg10 mi
3:00 pm64 °FSunny.14 mph37%30.12 "Hg10 mi
2:00 pm64 °FSunny.17 mph40%30.12 "Hg10 mi
1:00 pm63 °FSunny.17 mph42%30.15 "Hg10 mi
12:00 pm61 °FSunny.17 mph48%30.18 "Hg10 mi
11:00 am59 °FSunny.20 mph51%30.21 "Hg10 mi
10:00 am57 °FSunny.15 mph55%30.24 "Hg10 mi
9:00 am54 °FClear.14 mph63%30.24 "Hg5 mi
Weather by CustomWeather, © 2017

See weather overviewHow to use our weather pages